Location: Unspecified
(35.6961°N, 0.0000°E)
Time: 14:49:20
(UTC+00:00)

Vanguard 2 Rocket - Pass Details

Date: 03 June 2019
Orbit: 555 x 3326 km, 32.9° (Epoch: 25 June)

Event Time Altitude Azimuth Distance (km) Brightness Sun altitude
Rises 00:44:12 0° 215° (SW) 6,093 - -31.0°
Reaches altitude 10° 00:48:06 10° 209° (SSW) 5,397 - -30.9°
Exits shadow 00:59:13 39° 173° (S) 4,111 9.7 -30.3°
Maximum altitude 01:04:08 44° 144° (SE) 4,038 9.8 -30.0°
Drops below altitude 10° 01:22:15 10° 81° (E) 6,087 11.4 -28.7°
Sets 01:26:55 0° 76° (ENE) 6,906 11.9 -28.3°
